Sturgis, MI

9:31 AM EST on December 11, 2016 (GMT -0500)
Kirsch Municipal

Weather History for KIRS - January, 2013

Change the Weather History Date:

Wednesday, January 23, 2013

  Actual Average (KHAI) Record (KHAI)
Temperature  
Mean Temperature 10 °F -  
Max Temperature 17 °F 34 °F 57 °F (1967)
Min Temperature 3 °F 17 °F -8 °F (1963)
Degree Days  
Heating Degree Days 55    
Moisture  
Dew Point 5 °F    
Average Humidity 75    
Maximum Humidity 93    
Minimum Humidity 57    
Precipitation  
Precipitation 0.00 in - - ()
Sea Level Pressure  
Sea Level Pressure 30.15 in    
Wind  
Wind Speed 8 mph (WSW)    
Max Wind Speed 20 mph    
Max Gust Speed 31 mph    
Visibility 8 miles    
Events Snow    
Averages and records for this station are not official NWS values.
T = Trace of Precipitation, MM = Missing Value Source: NWS Daily Summary

Daily Weather History Graph

Daily Weather History Graph

Search for Another Location

Airport or City:

Trip Planner

Search our weather history database for the weather conditions in past years. The results will help you decide how hot, cold, wet, or windy it might be!

Date:

Astronomy

Jan. 23, 2013 Rise Set
Actual Time 8:01 AM EST 5:46 PM EST
Civil Twilight 7:31 AM EST 6:16 PM EST
Nautical Twilight 6:57 AM EST 6:50 PM EST
Astronomical Twilight 6:24 AM EST 7:23 PM EST
Moon 2:55 PM EST (1/23) 5:13 AM EST (1/23)
Length of Visible Light 10h 44m
Length of Day
9h 44m
Waxing Gibbous, 89% of the Moon is Illuminated
Jan 23
Waxing Gibbous
Jan 26
Full
Feb 3
Last Quarter
Feb 10
New
Feb 17
First Quarter

Hourly Weather History & Observations

Time (EST) Temp. Windchill Dew Point Humidity Pressure Visibility Wind Dir Wind Speed Gust Speed Precip Events Conditions
12:15 AM 5.0 °F -6.9 °F -0.4 °F 78% 30.25 in 10.0 mi WSW 6.9 mph - N/A   Overcast
12:35 AM 5.0 °F -8.1 °F 1.4 °F 85% 30.25 in 10.0 mi WSW 8.1 mph - N/A   Overcast
12:55 AM 5.0 °F -5.6 °F 1.4 °F 85% 30.25 in 10.0 mi West 5.8 mph - N/A   Overcast
1:15 AM 5.0 °F -6.9 °F -0.4 °F 78% 30.24 in 10.0 mi WSW 6.9 mph - N/A Snow Light Snow
1:35 AM 5.0 °F -6.9 °F 1.4 °F 85% 30.24 in 7.0 mi WSW 6.9 mph - N/A Snow Light Snow
1:55 AM 3.2 °F -7.8 °F 1.4 °F 92% 30.24 in 10.0 mi WSW 5.8 mph - N/A   Mostly Cloudy
2:15 AM 3.2 °F -9.1 °F 1.4 °F 92% 30.24 in 7.0 mi WSW 6.9 mph - N/A Snow Light Snow
2:35 AM 3.2 °F -9.1 °F -0.4 °F 85% 30.24 in 10.0 mi WSW 6.9 mph - N/A Snow Light Snow
2:55 AM 3.2 °F -7.8 °F 1.4 °F 92% 30.24 in 10.0 mi WSW 5.8 mph - N/A   Clear
3:15 AM 3.2 °F -7.8 °F -0.4 °F 85% 30.24 in 10.0 mi WSW 5.8 mph - N/A   Scattered Clouds
3:35 AM 3.2 °F -7.8 °F -0.4 °F 85% 30.24 in 10.0 mi WSW 5.8 mph - N/A   Overcast
3:55 AM 3.2 °F -6.2 °F 1.4 °F 92% 30.24 in 10.0 mi WSW 4.6 mph - N/A   Overcast
4:15 AM 3.2 °F -4.2 °F 1.4 °F 92% 30.23 in 10.0 mi WSW 3.5 mph - N/A   Mostly Cloudy
4:35 AM 3.2 °F -6.2 °F -0.4 °F 85% 30.23 in 10.0 mi WSW 4.6 mph - N/A   Mostly Cloudy
4:55 AM 6.8 °F -3.5 °F 1.4 °F 79% 30.23 in 10.0 mi WSW 5.8 mph - N/A   Overcast
5:15 AM 6.8 °F -2.0 °F 1.4 °F 79% 30.23 in 10.0 mi WSW 4.6 mph - N/A   Overcast
5:35 AM 6.8 °F -4.8 °F -0.4 °F 72% 30.23 in 10.0 mi WSW 6.9 mph - N/A   Overcast
5:55 AM 6.8 °F -4.8 °F -0.4 °F 72% 30.22 in 10.0 mi WSW 6.9 mph - N/A   Overcast
6:15 AM 6.8 °F -3.5 °F 1.4 °F 79% 30.23 in 10.0 mi WSW 5.8 mph - N/A   Overcast
6:35 AM 8.6 °F -2.6 °F -0.4 °F 67% 30.23 in 10.0 mi WSW 6.9 mph - N/A   Overcast
6:55 AM 8.6 °F -3.7 °F 1.4 °F 73% 30.22 in 10.0 mi WSW 8.1 mph - N/A   Overcast
7:15 AM 8.6 °F -2.6 °F 1.4 °F 73% 30.23 in 10.0 mi WSW 6.9 mph - N/A   Overcast
7:35 AM 8.6 °F -4.7 °F 1.4 °F 73% 30.22 in 10.0 mi WSW 9.2 mph - N/A   Overcast
7:54 AM 8.6 °F -5.5 °F 1.4 °F 73% 30.22 in 10.0 mi WSW 10.4 mph - N/A   Overcast
8:15 AM 8.6 °F -6.3 °F 1.4 °F 73% 30.22 in 10.0 mi SW 11.5 mph - N/A   Overcast
8:35 AM 10.4 °F -3.3 °F 1.4 °F 67% 30.21 in 10.0 mi SW 10.4 mph - N/A   Overcast
8:54 AM 10.4 °F -3.3 °F 1.4 °F 67% 30.21 in 10.0 mi SW 10.4 mph - N/A   Overcast
9:15 AM 10.4 °F -4.8 °F 1.4 °F 67% 30.21 in 10.0 mi WSW 12.7 mph - N/A   Overcast
9:35 AM 10.4 °F -4.8 °F 1.4 °F 67% 30.21 in 10.0 mi SW 12.7 mph - N/A   Overcast
9:54 AM 10.4 °F -3.3 °F 1.4 °F 67% 30.21 in 10.0 mi WSW 10.4 mph - N/A   Overcast
10:15 AM 10.4 °F -4.1 °F 1.4 °F 67% 30.21 in 10.0 mi WSW 11.5 mph - N/A   Overcast
10:35 AM 12.2 °F -1.8 °F 1.4 °F 62% 30.21 in 10.0 mi WSW 11.5 mph - N/A   Overcast
10:54 AM 12.2 °F -2.5 °F 1.4 °F 62% 30.21 in 10.0 mi WSW 12.7 mph - N/A   Overcast
11:15 AM 12.2 °F -3.1 °F -0.4 °F 57% 30.21 in 10.0 mi SW 13.8 mph - N/A   Overcast
11:35 AM 12.2 °F -2.5 °F 1.4 °F 62% 30.21 in 10.0 mi WSW 12.7 mph 16.1 mph N/A   Overcast
11:55 AM 12.2 °F -1.0 °F 1.4 °F 62% 30.20 in 10.0 mi WSW 10.4 mph - N/A   Overcast
12:15 PM 12.2 °F -3.1 °F 1.4 °F 62% 30.19 in 10.0 mi WSW 13.8 mph - N/A   Overcast
12:34 PM 14.0 °F -1.4 °F 1.4 °F 57% 30.18 in 10.0 mi SW 15.0 mph - N/A   Overcast
12:55 PM 14.0 °F -0.2 °F 3.2 °F 62% 30.16 in 10.0 mi SW 12.7 mph - N/A   Overcast
1:15 PM 14.0 °F -0.2 °F 3.2 °F 62% 30.15 in 10.0 mi SW 12.7 mph - N/A   Overcast
1:35 PM 15.8 °F 2.1 °F 5.0 °F 62% 30.14 in 10.0 mi SW 12.7 mph - N/A   Overcast
1:55 PM 15.8 °F 0.9 °F 5.0 °F 62% 30.12 in 7.0 mi WSW 15.0 mph - N/A   Overcast
2:15 PM 15.8 °F 2.1 °F 5.0 °F 62% 30.11 in 7.0 mi SW 12.7 mph - N/A   Overcast
2:35 PM 15.8 °F 4.2 °F 6.8 °F 68% 30.10 in 7.0 mi WSW 9.2 mph - N/A   Overcast
2:55 PM 15.8 °F 2.7 °F 6.8 °F 68% 30.10 in 7.0 mi WSW 11.5 mph - N/A   Overcast
3:14 PM 15.8 °F 2.7 °F 6.8 °F 68% 30.10 in 10.0 mi WSW 11.5 mph - N/A   Overcast
3:35 PM 15.8 °F 2.1 °F 6.8 °F 68% 30.09 in 10.0 mi WSW 12.7 mph - N/A   Overcast
3:55 PM 15.8 °F 4.2 °F 6.8 °F 68% 30.09 in 10.0 mi WSW 9.2 mph - N/A   Overcast
4:14 PM 15.8 °F 2.7 °F 6.8 °F 68% 30.08 in 10.0 mi SW 11.5 mph - N/A   Overcast
4:35 PM 15.8 °F 4.2 °F 6.8 °F 68% 30.07 in 7.0 mi SW 9.2 mph - N/A   Overcast
4:54 PM 15.8 °F 4.2 °F 6.8 °F 68% 30.07 in 7.0 mi WSW 9.2 mph - N/A   Overcast
5:15 PM 15.8 °F 4.2 °F 8.6 °F 73% 30.06 in 7.0 mi SW 9.2 mph - N/A   Overcast
5:35 PM 15.8 °F 4.2 °F 8.6 °F 73% 30.06 in 10.0 mi WSW 9.2 mph - N/A   Overcast
5:54 PM 15.8 °F 5.1 °F 8.6 °F 73% 30.06 in 10.0 mi SW 8.1 mph - N/A   Overcast
6:15 PM 15.8 °F 6.1 °F 8.6 °F 73% 30.06 in 10.0 mi SW 6.9 mph - N/A   Overcast
6:35 PM 15.8 °F 6.1 °F 10.4 °F 79% 30.05 in 10.0 mi SW 6.9 mph - N/A   Overcast
6:55 PM 15.8 °F 6.1 °F 10.4 °F 79% 30.05 in 7.0 mi SW 6.9 mph - N/A Snow Light Snow
7:15 PM 15.8 °F 5.1 °F 10.4 °F 79% 30.05 in 5.0 mi SW 8.1 mph - N/A Snow Light Snow
7:35 PM 15.8 °F 4.2 °F 10.4 °F 79% 30.04 in 7.0 mi SW 9.2 mph - N/A Snow Light Snow
7:55 PM 15.8 °F 4.2 °F 10.4 °F 79% 30.03 in 7.0 mi SW 9.2 mph - N/A Snow Light Snow
8:15 PM 15.8 °F 4.2 °F 12.2 °F 86% 30.03 in 7.0 mi SW 9.2 mph - N/A Snow Light Snow
8:34 PM 15.8 °F 4.2 °F 12.2 °F 86% 30.03 in 3.0 mi SW 9.2 mph - N/A Snow Light Snow
8:55 PM 15.8 °F 4.2 °F 12.2 °F 86% 30.03 in 2.0 mi WSW 9.2 mph - N/A Snow Light Snow
9:15 PM 15.8 °F 6.1 °F 12.2 °F 86% 30.04 in 1.2 mi West 6.9 mph - N/A Snow Light Snow
9:34 PM 15.8 °F 5.1 °F 14.0 °F 93% 30.04 in 1.5 mi West 8.1 mph - N/A Snow Light Snow
9:55 PM 17.6 °F 7.3 °F 14.0 °F 86% 30.04 in 1.2 mi West 8.1 mph - N/A Snow Light Snow
10:15 PM 17.6 °F 7.3 °F 15.8 °F 93% 30.04 in 1.8 mi WNW 8.1 mph - N/A Snow Light Snow
10:34 PM 17.6 °F 5.0 °F 15.8 °F 93% 30.05 in 1.2 mi NW 11.5 mph 20.7 mph N/A Snow Light Snow
10:55 PM 17.6 °F 1.3 °F 14.0 °F 86% 30.07 in 2.0 mi North 19.6 mph 31.1 mph N/A Snow Light Snow
11:15 PM 15.8 °F 1.4 °F 10.4 °F 79% 30.09 in 2.5 mi North 13.8 mph 21.9 mph N/A Snow Light Snow
11:34 PM 15.8 °F -0.6 °F 10.4 °F 79% 30.11 in 3.0 mi North 18.4 mph 23.0 mph N/A Snow Light Snow
11:55 PM 14.0 °F 0.5 °F 10.4 °F 86% 30.12 in 10.0 mi North 11.5 mph - N/A   Mostly Cloudy